Terminal Aerodrome Forecast
Issued by NWS Denver/Boulder, CO

Home | Current Version | Previous Version | Text Only | Print | Product List | Glossary On
Versions: 1 2 3 4 5 6 7 8 9 10 11 12 13 14 15 16 17 18 19 20 21 22 23 24 25 26 27 28 29 30 31 32 33 34 35 36 37 38 39 40 41 42 43 44 45 46 47 48 49 50
000
FTUS45 KBOU 051120
TAFDEN
TAF
KDEN 051120Z 0512/0618 24007KT P6SM FEW070 BKN100
     FM051600 VRB05KT P6SM SCT100 BKN140
     FM051800 10007KT P6SM SCT120 BKN200
     FM052200 15012KT P6SM SCT080 BKN120
     FM060200 19010KT P6SM SCT100 BKN200
     FM061500 12007KT P6SM FEW100=

USA.gov is the U.S. government's official web portal to all federal, state and local government web resources and services.